TimeEDT,TemperatureF,Dew PointF,Humidity,Sea Level PressureIn,VisibilityMPH,Wind Direction,Wind SpeedMPH,Gust SpeedMPH,PrecipitationIn,Events,Conditions,WindDirDegrees,DateUTC
12:14 AM,46.4,32.0,57,29.69,10.0,WNW,16.1,24.2,N/A,,Mostly Cloudy,300,2013-04-01 04:14:00
12:55 AM,42.8,30.2,61,29.70,10.0,WNW,18.4,23.0,N/A,,Scattered Clouds,290,2013-04-01 04:55:00
1:15 AM,41.0,28.4,61,29.71,10.0,WNW,13.8,23.0,N/A,,Clear,290,2013-04-01 05:15:00
1:35 AM,39.2,28.4,65,29.72,10.0,WNW,11.5,18.4,N/A,,Clear,290,2013-04-01 05:35:00
1:55 AM,39.2,28.4,65,29.72,10.0,WNW,11.5,-,N/A,,Clear,290,2013-04-01 05:55:00
2:15 AM,39.2,28.4,65,29.73,10.0,WNW,10.4,-,N/A,,Clear,290,2013-04-01 06:15:00
2:35 AM,37.4,28.4,70,29.73,10.0,West,9.2,-,N/A,,Clear,280,2013-04-01 06:35:00
2:55 AM,37.4,28.4,70,29.73,10.0,West,6.9,-,N/A,,Clear,270,2013-04-01 06:55:00
3:15 AM,37.4,30.2,75,29.75,10.0,West,5.8,-,N/A,,Mostly Cloudy,280,2013-04-01 07:15:00
3:35 AM,37.4,30.2,75,29.76,10.0,North,11.5,-,N/A,,Overcast,350,2013-04-01 07:35:00
4:16 AM,35.6,26.6,70,29.78,10.0,NNW,11.5,-,N/A,,Overcast,330,2013-04-01 08:16:00
4:36 AM,35.6,28.4,75,29.79,10.0,NNW,10.4,-,N/A,,Overcast,330,2013-04-01 08:36:00
4:56 AM,35.6,26.6,70,29.80,10.0,NW,12.7,-,N/A,Snow,Light Snow,320,2013-04-01 08:56:00
5:16 AM,35.6,24.8,65,29.82,10.0,WNW,13.8,20.7,N/A,,Overcast,300,2013-04-01 09:16:00
5:36 AM,33.8,21.2,60,29.83,10.0,NW,15.0,18.4,N/A,,Mostly Cloudy,310,2013-04-01 09:36:00
5:56 AM,33.8,21.2,60,29.84,10.0,NW,11.5,-,N/A,,Mostly Cloudy,310,2013-04-01 09:56:00
6:16 AM,33.8,17.6,52,29.85,10.0,NW,12.7,20.7,N/A,,Clear,310,2013-04-01 10:16:00
6:31 AM,33.8,17.6,52,29.86,10.0,NW,13.8,18.4,N/A,,Clear,310,2013-04-01 10:31:00
6:51 AM,32.0,17.6,55,29.88,10.0,NW,10.4,-,N/A,,Clear,320,2013-04-01 10:51:00
7:12 AM,30.2,17.6,60,29.88,10.0,NW,10.4,-,N/A,,Clear,310,2013-04-01 11:12:00
7:32 AM,30.2,17.6,60,29.90,10.0,NW,10.4,-,N/A,,Clear,320,2013-04-01 11:32:00
8:12 AM,32.0,17.6,55,29.92,10.0,NW,9.2,-,N/A,,Clear,310,2013-04-01 12:12:00
8:32 AM,33.8,17.6,52,29.92,10.0,NW,9.2,-,N/A,,Clear,310,2013-04-01 12:32:00
8:52 AM,33.8,17.6,52,29.93,10.0,WNW,10.4,17.3,N/A,,Clear,300,2013-04-01 12:52:00
9:12 AM,33.8,15.8,48,29.94,10.0,WNW,16.1,23.0,N/A,,Clear,300,2013-04-01 13:12:00
9:32 AM,33.8,14.0,44,29.95,10.0,NW,19.6,24.2,N/A,,Clear,310,2013-04-01 13:32:00
9:52 AM,33.8,12.2,41,29.95,10.0,WNW,15.0,24.2,N/A,,Clear,300,2013-04-01 13:52:00
10:12 AM,35.6,14.0,41,29.95,10.0,NW,15.0,20.7,N/A,,Clear,320,2013-04-01 14:12:00
10:32 AM,35.6,15.8,44,29.96,10.0,NW,11.5,20.7,N/A,,Scattered Clouds,320,2013-04-01 14:32:00
10:53 AM,35.6,15.8,44,29.96,10.0,WNW,15.0,23.0,N/A,,Mostly Cloudy,300,2013-04-01 14:53:00
11:13 AM,35.6,14.0,41,29.97,10.0,WNW,16.1,24.2,N/A,,Scattered Clouds,300,2013-04-01 15:13:00
11:33 AM,37.4,14.0,38,29.97,10.0,NW,8.1,23.0,N/A,,Scattered Clouds,320,2013-04-01 15:33:00
11:53 AM,37.4,15.8,41,29.98,10.0,West,16.1,23.0,N/A,,Scattered Clouds,280,2013-04-01 15:53:00
12:13 PM,37.4,12.2,36,29.98,10.0,NW,18.4,23.0,N/A,,Scattered Clouds,310,2013-04-01 16:13:00
12:33 PM,39.2,12.2,33,29.98,10.0,West,19.6,26.5,N/A,,Scattered Clouds,270,2013-04-01 16:33:00
12:53 PM,39.2,14.0,36,29.98,10.0,West,15.0,21.9,N/A,,Scattered Clouds,270,2013-04-01 16:53:00
1:13 PM,39.2,12.2,33,29.98,10.0,NW,16.1,27.6,N/A,,Scattered Clouds,320,2013-04-01 17:13:00
1:34 PM,37.4,12.2,36,29.99,10.0,WNW,19.6,25.3,N/A,,Scattered Clouds,300,2013-04-01 17:34:00
1:54 PM,39.2,12.2,33,29.98,10.0,WNW,13.8,20.7,N/A,,Scattered Clouds,300,2013-04-01 17:54:00
2:14 PM,41.0,12.2,31,29.98,10.0,WNW,16.1,26.5,N/A,,Mostly Cloudy,290,2013-04-01 18:14:00
2:34 PM,41.0,14.0,33,29.98,10.0,West,17.3,26.5,N/A,,Mostly Cloudy,280,2013-04-01 18:34:00
2:54 PM,39.2,12.2,33,29.98,10.0,WNW,17.3,20.7,N/A,,Mostly Cloudy,300,2013-04-01 18:54:00
3:14 PM,41.0,12.2,31,29.98,10.0,WNW,16.1,27.6,N/A,,Mostly Cloudy,290,2013-04-01 19:14:00
3:34 PM,42.8,14.0,31,29.98,10.0,NW,18.4,25.3,N/A,,Mostly Cloudy,310,2013-04-01 19:34:00
3:54 PM,39.2,12.2,33,29.98,10.0,WNW,13.8,23.0,N/A,,Overcast,290,2013-04-01 19:54:00
4:14 PM,39.2,12.2,33,29.98,10.0,West,17.3,23.0,N/A,,Mostly Cloudy,270,2013-04-01 20:14:00
4:34 PM,41.0,14.0,33,29.99,10.0,West,17.3,21.9,N/A,,Mostly Cloudy,280,2013-04-01 20:34:00
4:54 PM,39.2,12.2,33,29.99,10.0,West,18.4,-,N/A,,Mostly Cloudy,280,2013-04-01 20:54:00
5:15 PM,41.0,12.2,31,29.99,10.0,WNW,16.1,24.2,N/A,,Mostly Cloudy,300,2013-04-01 21:15:00
5:35 PM,41.0,12.2,31,29.99,10.0,West,17.3,23.0,N/A,,Mostly Cloudy,280,2013-04-01 21:35:00
5:55 PM,39.2,12.2,33,30.00,10.0,West,20.7,26.5,N/A,,Mostly Cloudy,270,2013-04-01 21:55:00
6:15 PM,37.4,12.2,36,30.01,10.0,WNW,15.0,25.3,N/A,,Scattered Clouds,300,2013-04-01 22:15:00
6:35 PM,37.4,12.2,36,30.01,10.0,WNW,19.6,23.0,N/A,,Mostly Cloudy,290,2013-04-01 22:35:00
6:55 PM,37.4,12.2,36,30.02,10.0,WNW,16.1,23.0,N/A,,Mostly Cloudy,300,2013-04-01 22:55:00
7:15 PM,35.6,12.2,38,30.03,10.0,WNW,12.7,23.0,N/A,,Scattered Clouds,300,2013-04-01 23:15:00
7:35 PM,35.6,12.2,38,30.03,10.0,WNW,15.0,18.4,N/A,,Mostly Cloudy,300,2013-04-01 23:35:00
7:56 PM,33.8,12.2,41,30.04,10.0,WNW,15.0,23.0,N/A,,Scattered Clouds,300,2013-04-01 23:56:00
8:16 PM,33.8,12.2,41,30.05,10.0,WNW,16.1,-,N/A,,Clear,290,2013-04-02 00:16:00
8:36 PM,33.8,12.2,41,30.05,10.0,WNW,13.8,-,N/A,,Clear,300,2013-04-02 00:36:00
8:56 PM,32.0,12.2,44,30.06,10.0,WNW,16.1,23.0,N/A,,Scattered Clouds,300,2013-04-02 00:56:00
9:16 PM,32.0,12.2,44,30.07,10.0,NW,15.0,18.4,N/A,,Mostly Cloudy,310,2013-04-02 01:16:00
9:36 PM,32.0,12.2,44,30.08,10.0,WNW,12.7,18.4,N/A,,Mostly Cloudy,290,2013-04-02 01:36:00
9:56 PM,30.2,12.2,47,30.08,10.0,WNW,10.4,19.6,N/A,,Scattered Clouds,300,2013-04-02 01:56:00
10:11 PM,30.2,12.2,47,30.09,10.0,WNW,13.8,18.4,N/A,,Scattered Clouds,290,2013-04-02 02:11:00
10:31 PM,30.2,12.2,47,30.09,10.0,WNW,10.4,-,N/A,,Scattered Clouds,300,2013-04-02 02:31:00
10:52 PM,30.2,12.2,47,30.09,10.0,WNW,9.2,16.1,N/A,,Clear,300,2013-04-02 02:52:00
11:12 PM,28.4,12.2,51,30.09,10.0,WNW,8.1,-,N/A,,Clear,300,2013-04-02 03:12:00
11:32 PM,28.4,14.0,55,30.09,10.0,West,5.8,-,N/A,,Clear,280,2013-04-02 03:32:00
11:52 PM,26.6,15.8,64,30.09,10.0,WNW,5.8,-,N/A,,Clear,290,2013-04-02 03:52:00